Location: Chantarel
(45.1638°N, 1.7873°E)
Time: 20:47:04
(UTC+00:00)

Meteor 1-13 Rocket - Pass Details

Date: 03 March 2021
Orbit: 830 x 913 km, 81.3° (Epoch: 13 April)

Event Time Altitude Azimuth Distance (km) Brightness Sun altitude
Rises 19:35:59 0° 349° (N) 3,557 7.7 -20.6°
Reaches altitude 10° 19:38:28 10° 351° (N) 2,608 7.0 -21.0°
Maximum altitude 19:44:27 84° 79° (ENE) 915 4.2 -22.1°
Enters shadow 19:48:37 20° 167° (SSE) 1,928 5.8 -22.8°
